Location: Kalberh�ni
(46.4610°N, 7.2453°E)
Time: 05:05:34
(UTC+00:00)

Cosmos 1802 Rocket - Pass Details

Date: 23 October 2021
Orbit: 955 x 1010 km, 82.9° (Epoch: 05 December)

Event Time Altitude Azimuth Distance (km) Brightness Sun altitude
Rises 04:27:20 0° 5° (N) 3,674 7.1 -16.5°
Reaches altitude 10° 04:31:30 10° 31° (NNE) 2,734 6.8 -15.8°
Maximum altitude 04:34:21 13° 59° (ENE) 2,506 7.0 -15.3°
Drops below altitude 10° 04:37:13 10° 86° (E) 2,745 7.8 -14.8°
Sets 04:41:23 0° 113° (ESE) 3,701 8.4 -14.1°
